Location: Unspecified
(49.2170°N, 0.0000°E)
Time: 02:20:59
(UTC+00:00)

A-11 Canister half - Pass Details

Date: 25 June 2021
Orbit: 1513 x 1687 km, 47.2° (Epoch: 03 August)

Event Time Altitude Azimuth Distance (km) Brightness Sun altitude
Exits shadow 01:13:30 13° 166° (SSE) 3,656 10.5 -15.7°
Maximum altitude 01:18:56 21° 129° (SE) 3,117 10.4 -15.4°
Drops below altitude 10° 01:25:43 10° 86° (E) 3,888 11.4 -15.1°
Sets 01:29:48 0° 72° (ENE) 4,851 12.2 -14.8°
